DLH6931 EDDS-EDDH

Flight info

Callsign DLH6931
Flight time 0h 54m
Altitude 34000
Route OKIBA4H OKIBA N851 RIMKI Z99 LOHRE DCT MASEK DCT ELNAT P605 NOLGO NOLGO6A
Aircraft A321/M-SDE3FGHIRWY/LB1

Departure

Time 2026-05-05 10:47
Airport Stuttgart Airport (EDDS)

Arrival

Time 2026-05-05 11:41
Airport Hamburg Helmut Schmidt Airport (EDDH)
Time Latitude Longitude Altitude Speed Heading
2026-05-05 10:17 48.68880 9.19361 1316 ft 0 kts 344°
2026-05-05 10:38 48.68861 9.19369 1315 ft 3 kts 344°
2026-05-05 10:38 48.68841 9.19378 1314 ft 2 kts 344°
2026-05-05 10:38 48.68821 9.19381 1314 ft 3 kts 27°
2026-05-05 10:38 48.68805 9.19359 1314 ft 3 kts 63°
2026-05-05 10:39 48.68798 9.19336 1314 ft 0 kts 74°
2026-05-05 10:42 48.68798 9.19337 1314 ft 0 kts 74°
2026-05-05 10:43 48.68805 9.19375 1313 ft 9 kts 73°
2026-05-05 10:43 48.68830 9.19506 1311 ft 15 kts 74°
2026-05-05 10:43 48.68862 9.19677 1308 ft 18 kts 74°
2026-05-05 10:43 48.68888 9.19850 1303 ft 14 kts 97°
2026-05-05 10:44 48.68803 9.19930 1296 ft 18 kts 150°
2026-05-05 10:44 48.68729 9.19966 1292 ft 0 kts 164°
2026-05-05 10:45 48.68716 9.19972 1291 ft 5 kts 164°
2026-05-05 10:45 48.68667 9.19993 1288 ft 10 kts 164°
2026-05-05 10:45 48.68603 9.20082 1283 ft 15 kts 109°
2026-05-05 10:46 48.68620 9.20257 1279 ft 23 kts 74°
2026-05-05 10:46 48.68733 9.20858 1270 ft 95 kts 74°
2026-05-05 10:46 48.68975 9.22126 1236 ft 154 kts 73°
2026-05-05 10:46 48.69315 9.23871 1378 ft 184 kts 73°
2026-05-05 10:47 48.69663 9.25687 2145 ft 179 kts 74°
2026-05-05 10:47 48.69999 9.27541 2566 ft 192 kts 74°
2026-05-05 10:47 48.70374 9.29603 2814 ft 213 kts 74°
2026-05-05 10:47 48.70794 9.31880 2969 ft 237 kts 74°
2026-05-05 10:48 48.71264 9.34403 3260 ft 258 kts 73°
2026-05-05 10:48 48.71763 9.37049 3898 ft 264 kts 74°
2026-05-05 10:48 48.72274 9.39745 4606 ft 268 kts 74°
2026-05-05 10:48 48.72786 9.42430 5318 ft 271 kts 75°
2026-05-05 10:49 48.73314 9.45184 6047 ft 273 kts 76°
2026-05-05 10:49 48.73899 9.47943 6731 ft 278 kts 66°
2026-05-05 10:49 48.75009 9.50353 7388 ft 284 kts 44°
2026-05-05 10:49 48.76674 9.51986 8063 ft 289 kts 21°
2026-05-05 10:50 48.78651 9.52549 8753 ft 293 kts 359°
2026-05-05 10:50 48.80702 9.52337 9432 ft 296 kts 355°
2026-05-05 10:50 48.82768 9.52090 10061 ft 302 kts 355°
2026-05-05 10:50 48.84946 9.51835 10204 ft 325 kts 355°
2026-05-05 10:51 48.87272 9.51569 10326 ft 346 kts 355°
2026-05-05 10:51 48.89734 9.51292 10558 ft 361 kts 356°
2026-05-05 10:51 48.92258 9.51013 11071 ft 367 kts 355°
2026-05-05 10:51 48.94767 9.50578 11635 ft 370 kts 348°
2026-05-05 10:52 48.97235 9.49436 12202 ft 373 kts 336°
2026-05-05 10:52 48.99590 9.47731 12765 ft 376 kts 333°
2026-05-05 10:52 49.01954 9.45981 13340 ft 380 kts 333°
2026-05-05 10:52 49.04348 9.44219 13872 ft 384 kts 333°
2026-05-05 10:53 49.06762 9.42445 14367 ft 387 kts 333°
2026-05-05 10:53 49.09203 9.40656 14858 ft 390 kts 333°
2026-05-05 10:53 49.11655 9.38858 15356 ft 394 kts 333°
2026-05-05 10:53 49.14139 9.37031 15846 ft 397 kts 333°
2026-05-05 10:54 49.16603 9.35212 16376 ft 400 kts 332°
2026-05-05 10:54 49.19125 9.33371 16870 ft 404 kts 335°
2026-05-05 10:54 49.21807 9.31992 17367 ft 410 kts 345°
2026-05-05 10:54 49.24641 9.31348 17841 ft 415 kts 356°
2026-05-05 10:55 49.27542 9.31139 18292 ft 418 kts 356°
2026-05-05 10:55 49.30459 9.30921 18711 ft 421 kts 356°
2026-05-05 10:55 49.33392 9.30696 19170 ft 423 kts 356°
2026-05-05 10:55 49.36344 9.30671 19612 ft 426 kts
2026-05-05 10:56 49.39297 9.31108 20061 ft 428 kts
2026-05-05 10:56 49.42228 9.31546 20507 ft 429 kts
2026-05-05 10:56 49.45250 9.31987 20961 ft 431 kts
2026-05-05 10:56 49.48205 9.32415 21407 ft 433 kts
2026-05-05 10:57 49.51207 9.32855 21848 ft 435 kts
2026-05-05 10:57 49.54227 9.33303 22271 ft 437 kts
2026-05-05 10:57 49.57260 9.33757 22711 ft 439 kts
2026-05-05 10:57 49.59272 9.34057 22993 ft 440 kts
2026-05-05 10:58 49.63066 9.34623 23545 ft 442 kts
2026-05-05 10:58 49.65606 9.35001 23873 ft 444 kts
2026-05-05 10:58 49.68683 9.35460 24189 ft 446 kts
2026-05-05 10:58 49.71739 9.35914 24502 ft 449 kts
2026-05-05 10:59 49.74849 9.36452 24802 ft 452 kts
2026-05-05 10:59 49.77932 9.37530 25101 ft 455 kts 13°
2026-05-05 10:59 49.81008 9.38717 25396 ft 457 kts 13°
2026-05-05 10:59 49.84100 9.39911 25695 ft 460 kts 13°
2026-05-05 11:00 49.87226 9.41112 25975 ft 464 kts 13°
2026-05-05 11:00 49.90364 9.42318 26262 ft 466 kts 13°
2026-05-05 11:00 49.93521 9.43532 26571 ft 469 kts 13°
2026-05-05 11:00 49.96652 9.44741 26861 ft 471 kts 13°
2026-05-05 11:01 49.99845 9.45978 27155 ft 474 kts 13°
2026-05-05 11:01 50.03053 9.47227 27439 ft 476 kts 13°
2026-05-05 11:01 50.06278 9.48428 27782 ft 476 kts
2026-05-05 11:01 50.09536 9.49110 28319 ft 471 kts
2026-05-05 11:02 50.12790 9.49649 28867 ft 468 kts
2026-05-05 11:02 50.16014 9.50191 29422 ft 464 kts
2026-05-05 11:02 50.19211 9.50731 29980 ft 460 kts
2026-05-05 11:02 50.22377 9.51266 30467 ft 456 kts
2026-05-05 11:03 50.25514 9.51796 30965 ft 451 kts
2026-05-05 11:03 50.28574 9.52317 31465 ft 446 kts
2026-05-05 11:03 50.31638 9.52837 31987 ft 440 kts
2026-05-05 11:03 50.34664 9.53348 32513 ft 435 kts
2026-05-05 11:04 50.37655 9.53851 33048 ft 428 kts
2026-05-05 11:04 50.40587 9.54342 33590 ft 421 kts
2026-05-05 11:04 50.43498 9.54830 33825 ft 422 kts
2026-05-05 11:05 50.49420 9.55814 33879 ft 434 kts
2026-05-05 11:05 50.55508 9.56835 33865 ft 447 kts
2026-05-05 11:06 50.61738 9.57905 33864 ft 460 kts
2026-05-05 11:06 50.68195 9.59003 33864 ft 473 kts
2026-05-05 11:07 50.74780 9.60142 33863 ft 478 kts
2026-05-05 11:07 50.81389 9.61409 33866 ft 479 kts
2026-05-05 11:08 50.87963 9.62738 33864 ft 479 kts
2026-05-05 11:08 50.94578 9.64055 33878 ft 479 kts
2026-05-05 11:09 51.01187 9.65336 33879 ft 479 kts
2026-05-05 11:09 51.07808 9.66608 33883 ft 479 kts
2026-05-05 11:10 51.14386 9.67887 33886 ft 479 kts
2026-05-05 11:10 51.20997 9.69200 33903 ft 479 kts
2026-05-05 11:11 51.27606 9.70358 33899 ft 477 kts
2026-05-05 11:11 51.34201 9.71372 33907 ft 476 kts
2026-05-05 11:12 51.40745 9.72379 33919 ft 476 kts
2026-05-05 11:12 51.47317 9.73443 33914 ft 474 kts
2026-05-05 11:13 51.53867 9.74629 33908 ft 474 kts
2026-05-05 11:13 51.60412 9.75913 33904 ft 473 kts
2026-05-05 11:14 51.66939 9.77183 33916 ft 472 kts
2026-05-05 11:14 51.73421 9.78415 33909 ft 471 kts
2026-05-05 11:15 51.79925 9.79646 33882 ft 469 kts
2026-05-05 11:15 51.83153 9.80264 33572 ft 468 kts
2026-05-05 11:15 51.86397 9.80885 33294 ft 469 kts
2026-05-05 11:15 51.89628 9.81505 33048 ft 468 kts
2026-05-05 11:16 51.92857 9.82127 32777 ft 467 kts
2026-05-05 11:16 51.96030 9.82744 32508 ft 461 kts
2026-05-05 11:16 51.99174 9.83364 32245 ft 451 kts
2026-05-05 11:16 52.02260 9.83977 31981 ft 442 kts
2026-05-05 11:17 52.05281 9.84571 31716 ft 432 kts
2026-05-05 11:17 52.08233 9.85147 31467 ft 423 kts
2026-05-05 11:17 52.11131 9.85714 31210 ft 415 kts
2026-05-05 11:17 52.13965 9.86268 30979 ft 406 kts
2026-05-05 11:18 52.16738 9.86811 30740 ft 398 kts
2026-05-05 11:18 52.19472 9.87344 30476 ft 393 kts
2026-05-05 11:18 52.22172 9.87868 30114 ft 389 kts
2026-05-05 11:18 52.24849 9.88451 29699 ft 388 kts
2026-05-05 11:19 52.27441 9.89441 29275 ft 387 kts
2026-05-05 11:19 52.30032 9.90581 28837 ft 384 kts 10°
2026-05-05 11:19 52.32599 9.91712 28427 ft 380 kts 10°
2026-05-05 11:19 52.35140 9.92837 28022 ft 377 kts
2026-05-05 11:20 52.37658 9.93954 27593 ft 374 kts 10°
2026-05-05 11:20 52.40158 9.95063 27176 ft 370 kts 10°
2026-05-05 11:20 52.42636 9.96158 26777 ft 367 kts 10°
2026-05-05 11:20 52.45086 9.97237 26388 ft 363 kts 10°
2026-05-05 11:21 52.47516 9.98311 25995 ft 360 kts 10°
2026-05-05 11:21 52.49892 9.99364 25634 ft 357 kts 10°
2026-05-05 11:21 52.52275 10.00417 25261 ft 353 kts 10°
2026-05-05 11:21 52.54641 10.01464 24892 ft 350 kts 11°
2026-05-05 11:22 52.56983 10.02503 24539 ft 347 kts 11°
2026-05-05 11:22 52.59301 10.03536 24194 ft 344 kts 11°
2026-05-05 11:22 52.61606 10.04565 23838 ft 341 kts 11°
2026-05-05 11:22 52.63119 10.05240 23600 ft 339 kts 11°
2026-05-05 11:23 52.65390 10.06254 23207 ft 336 kts 11°
2026-05-05 11:23 52.67638 10.07258 22789 ft 334 kts 11°
2026-05-05 11:23 52.69867 10.08259 22385 ft 331 kts 11°
2026-05-05 11:23 52.72075 10.09254 21985 ft 328 kts 11°
2026-05-05 11:24 52.74269 10.10243 21586 ft 326 kts 12°
2026-05-05 11:24 52.76506 10.11213 20668 ft 339 kts
2026-05-05 11:24 52.78851 10.11769 20071 ft 340 kts
2026-05-05 11:24 52.81208 10.11876 19608 ft 338 kts 358°
2026-05-05 11:25 52.83548 10.11946 19203 ft 336 kts 358°
2026-05-05 11:25 52.85847 10.12027 18814 ft 333 kts 358°
2026-05-05 11:25 52.88151 10.12114 18414 ft 330 kts 358°
2026-05-05 11:25 52.90438 10.12196 17987 ft 328 kts 358°
2026-05-05 11:26 52.92710 10.12275 17523 ft 326 kts 358°
2026-05-05 11:26 52.94965 10.12352 17067 ft 323 kts 358°
2026-05-05 11:26 52.97205 10.12425 16628 ft 321 kts 358°
2026-05-05 11:26 52.99438 10.12497 16188 ft 319 kts 358°
2026-05-05 11:27 53.01649 10.12569 15771 ft 317 kts 359°
2026-05-05 11:27 53.03851 10.12642 15359 ft 315 kts 359°
2026-05-05 11:27 53.06034 10.12714 14986 ft 313 kts 359°
2026-05-05 11:27 53.08208 10.12786 14906 ft 312 kts 359°
2026-05-05 11:28 53.10355 10.12857 14916 ft 314 kts 359°
2026-05-05 11:28 53.12542 10.12928 14920 ft 314 kts 359°
2026-05-05 11:28 53.14730 10.13002 14921 ft 314 kts 359°
2026-05-05 11:28 53.16919 10.13076 14915 ft 314 kts 359°
2026-05-05 11:29 53.19093 10.13150 14649 ft 309 kts 359°
2026-05-05 11:29 53.21235 10.13224 14212 ft 309 kts 359°
2026-05-05 11:29 53.23382 10.13296 13679 ft 311 kts 359°
2026-05-05 11:29 53.25560 10.13368 13101 ft 314 kts 359°
2026-05-05 11:30 53.27752 10.13440 12648 ft 315 kts 359°
2026-05-05 11:30 53.29944 10.13518 12293 ft 315 kts 359°
2026-05-05 11:30 53.32095 10.13455 11972 ft 311 kts 348°
2026-05-05 11:30 53.34078 10.12207 11607 ft 303 kts 324°
2026-05-05 11:31 53.35582 10.09731 10899 ft 309 kts 300°
2026-05-05 11:31 53.36407 10.06412 10358 ft 311 kts 285°
2026-05-05 11:31 53.37023 10.02939 9920 ft 311 kts 284°
2026-05-05 11:31 53.37535 9.99440 9537 ft 308 kts 277°
2026-05-05 11:32 53.37775 9.95902 9142 ft 304 kts 274°
2026-05-05 11:32 53.37982 9.92296 8201 ft 319 kts 274°
2026-05-05 11:32 53.38184 9.88554 7201 ft 333 kts 274°
2026-05-05 11:32 53.38386 9.84613 6078 ft 347 kts 274°
2026-05-05 11:33 53.38592 9.80524 5171 ft 355 kts 274°
2026-05-05 11:33 53.38791 9.76412 4562 ft 353 kts 275°
2026-05-05 11:33 53.38955 9.72340 3950 ft 348 kts 274°
2026-05-05 11:33 53.39386 9.68505 3903 ft 323 kts 291°
2026-05-05 11:34 53.40585 9.65511 3776 ft 304 kts 319°
2026-05-05 11:34 53.42378 9.63885 3643 ft 287 kts 346°
2026-05-05 11:34 53.44308 9.63772 3532 ft 274 kts 12°
2026-05-05 11:34 53.46009 9.64988 3406 ft 262 kts 36°
2026-05-05 11:35 53.47257 9.67111 3281 ft 251 kts 50°
2026-05-05 11:35 53.48353 9.69308 3159 ft 239 kts 50°
2026-05-05 11:35 53.49385 9.71371 3046 ft 223 kts 50°
2026-05-05 11:35 53.50342 9.73284 3007 ft 209 kts 50°
2026-05-05 11:36 53.51222 9.75044 3025 ft 183 kts 50°
2026-05-05 11:36 53.51991 9.76586 3002 ft 162 kts 50°
2026-05-05 11:36 53.52695 9.77996 2888 ft 153 kts 50°
2026-05-05 11:36 53.53370 9.79351 2729 ft 149 kts 50°
2026-05-05 11:37 53.54025 9.80664 2541 ft 146 kts 50°
2026-05-05 11:37 53.54669 9.81956 2359 ft 143 kts 51°
2026-05-05 11:37 53.55309 9.83243 2160 ft 143 kts 51°
2026-05-05 11:37 53.55936 9.84504 1960 ft 142 kts 51°
2026-05-05 11:38 53.56575 9.85787 1769 ft 140 kts 50°
2026-05-05 11:38 53.57190 9.87025 1574 ft 140 kts 50°
2026-05-05 11:38 53.57812 9.88278 1384 ft 139 kts 50°
2026-05-05 11:38 53.58432 9.89527 1192 ft 139 kts 50°
2026-05-05 11:39 53.59055 9.90780 980 ft 141 kts 50°
2026-05-05 11:39 53.59682 9.92046 798 ft 140 kts 50°
2026-05-05 11:39 53.60308 9.93310 588 ft 139 kts 51°
2026-05-05 11:39 53.60930 9.94550 464 ft 140 kts 52°
2026-05-05 11:40 53.61565 9.95826 214 ft 143 kts 52°
2026-05-05 11:40 53.62185 9.97093 52 ft 140 kts 52°
2026-05-05 11:40 53.62719 9.98201 51 ft 104 kts 50°
2026-05-05 11:40 53.63124 9.99028 51 ft 79 kts 50°
2026-05-05 11:41 53.63430 9.99648 49 ft 60 kts 50°
2026-05-05 11:41 53.63530 9.99901 50 ft 10 kts 111°
2026-05-05 11:41 53.63492 9.99978 48 ft 9 kts 125°
2026-05-05 11:41 53.63479 10.00007 50 ft 0 kts 125°
2026-05-05 11:42 53.63479 10.00008 50 ft 0 kts 125°
2026-05-05 11:42 53.63469 10.00032 50 ft 5 kts 125°
2026-05-05 11:42 53.63437 10.00107 51 ft 11 kts 125°
2026-05-05 11:43 53.63371 10.00196 51 ft 13 kts 170°
2026-05-05 11:43 53.63278 10.00206 51 ft 14 kts 176°
2026-05-05 11:43 53.63196 10.00235 49 ft 7 kts 122°
2026-05-05 11:43 53.63205 10.00289 51 ft 5 kts 79°
2026-05-05 11:44 53.63207 10.00351 51 ft 4 kts 86°
2026-05-05 11:44 53.63208 10.00363 51 ft 0 kts 87°